User: anonymous   Login
Location: Chiroubles
(46.1812°N, 4.6660°E)
Time: 17:13:45
(UTC+00:00)
Language:

Cosmos 1763 Rocket - Orbit

View from above orbital plane
View from above orbital plane
View from above satellite
View from above satellite

Ground track
Ground track

The orbit data is extracted from the following two-line orbital elements,

1 16864U 86052B   20298.43935396  .00000055  00000-0  25482-4 0  9994
2 16864  74.0300 346.9018 0032175 144.3388 215.9926 14.40597990799356
Epoch (UTC): 24 October 2020 10:32:40
Eccentricity: 0.0032175
inclination: 74.0300°
perigee height: 733 km
apogee height: 779 km
right ascension of ascending node: 346.9018°
argument of perigee: 144.3388°
revolutions per day: 14.40597990
mean anomaly at epoch: 215.9926°
orbit number at epoch: 79935

The dashed part of the orbit path shows where the satellite is in the earth's shadow,  

DLR